Time,TemperatureF,DewpointF,PressureIn,WindDirection,WindDirectionDegrees,WindSpeedMPH,WindSpeedGustMPH,Humidity,HourlyPrecipIn,Conditions,Clouds,dailyrainin,SoftwareType,DateUTC
2013-10-06 00:05:00,68.0,68.0,29.84,NNW,329,0.0,2.0,98,0.00,,,0.13,weatherlink.com 1.10,2013-10-06 04:05:00,
2013-10-06 00:20:00,68.0,68.0,29.83,WNW,300,0.0,2.0,98,0.00,,,0.00,weatherlink.com 1.10,2013-10-06 04:20:00,
2013-10-06 00:35:00,67.9,67.0,29.83,SW,223,0.0,3.0,98,0.00,,,0.00,weatherlink.com 1.10,2013-10-06 04:35:00,
2013-10-06 00:50:00,67.7,67.0,29.83,WNW,287,0.0,2.0,98,0.00,,,0.00,weatherlink.com 1.10,2013-10-06 04:50:00,
2013-10-06 01:05:00,67.4,67.0,29.82,SSW,205,0.0,1.0,98,0.00,,,0.00,weatherlink.com 1.10,2013-10-06 05:05:00,
2013-10-06 01:20:00,67.0,66.0,29.81,SSW,205,0.0,0.0,97,0.00,,,0.00,weatherlink.com 1.10,2013-10-06 05:20:00,
2013-10-06 01:35:00,66.8,66.0,29.81,SSW,192,0.0,2.0,98,0.00,,,0.00,weatherlink.com 1.10,2013-10-06 05:35:00,
2013-10-06 01:50:00,66.5,66.0,29.80,WNW,296,0.0,4.0,97,0.00,,,0.00,weatherlink.com 1.10,2013-10-06 05:50:00,
2013-10-06 02:05:00,66.0,65.0,29.80,SE,128,1.0,3.0,97,0.00,,,0.00,weatherlink.com 1.10,2013-10-06 06:05:00,
2013-10-06 02:20:00,65.8,65.0,29.80,SSE,168,0.0,3.0,97,0.00,,,0.00,weatherlink.com 1.10,2013-10-06 06:20:00,
2013-10-06 02:35:00,65.7,65.0,29.80,WNW,293,1.0,2.0,97,0.00,,,0.00,weatherlink.com 1.10,2013-10-06 06:35:00,
2013-10-06 02:50:00,65.5,65.0,29.80,SSE,155,0.0,6.0,97,0.00,,,0.00,weatherlink.com 1.10,2013-10-06 06:50:00,
2013-10-06 03:05:00,65.4,65.0,29.80,South,182,2.0,4.0,97,0.00,,,0.00,weatherlink.com 1.10,2013-10-06 07:05:00,
2013-10-06 03:20:00,65.4,65.0,29.80,NNE,30,0.0,4.0,97,0.00,,,0.00,weatherlink.com 1.10,2013-10-06 07:20:00,
2013-10-06 03:35:00,65.4,65.0,29.80,SW,215,2.0,6.0,97,0.01,,,0.01,weatherlink.com 1.10,2013-10-06 07:35:00,
2013-10-06 03:50:00,65.4,65.0,29.77,SSW,205,0.0,3.0,97,0.01,,,0.01,weatherlink.com 1.10,2013-10-06 07:50:00,
2013-10-06 04:06:00,65.2,64.0,29.77,NW,319,1.0,4.0,97,0.02,,,0.02,weatherlink.com 1.10,2013-10-06 08:06:00,
2013-10-06 04:21:00,65.1,64.0,29.77,East,90,0.0,6.0,97,0.03,,,0.03,weatherlink.com 1.10,2013-10-06 08:21:00,
2013-10-06 04:36:00,65.0,65.0,29.77,West,279,1.0,3.0,98,0.03,,,0.04,weatherlink.com 1.10,2013-10-06 08:36:00,
2013-10-06 04:51:00,65.0,65.0,29.76,SW,236,0.0,4.0,98,0.04,,,0.06,weatherlink.com 1.10,2013-10-06 08:51:00,
2013-10-06 05:06:00,65.1,65.0,29.75,SSW,210,0.0,4.0,98,0.06,,,0.08,weatherlink.com 1.10,2013-10-06 09:06:00,
2013-10-06 05:21:00,65.1,65.0,29.74,SE,126,0.0,5.0,98,0.06,,,0.09,weatherlink.com 1.10,2013-10-06 09:21:00,
2013-10-06 05:36:00,65.1,65.0,29.76,SW,216,0.0,4.0,98,0.05,,,0.09,weatherlink.com 1.10,2013-10-06 09:36:00,
2013-10-06 05:51:00,65.2,65.0,29.77,NW,319,1.0,7.0,98,0.03,,,0.09,weatherlink.com 1.10,2013-10-06 09:51:00,
2013-10-06 06:06:00,65.2,65.0,29.76,West,265,2.0,5.0,98,0.01,,,0.09,weatherlink.com 1.10,2013-10-06 10:06:00,
2013-10-06 06:21:00,65.2,65.0,29.77,SW,223,0.0,7.0,98,0.00,,,0.09,weatherlink.com 1.10,2013-10-06 10:21:00,
2013-10-06 06:36:00,65.1,65.0,29.76,SW,214,0.0,4.0,98,0.00,,,0.09,weatherlink.com 1.10,2013-10-06 10:36:00,
2013-10-06 06:51:00,65.1,65.0,29.76,SE,141,1.0,1.0,98,0.00,,,0.09,weatherlink.com 1.10,2013-10-06 10:51:00,
2013-10-06 07:06:00,65.0,65.0,29.75,WSW,253,0.0,3.0,98,0.00,,,0.09,weatherlink.com 1.10,2013-10-06 11:06:00,
2013-10-06 07:21:00,64.9,64.0,29.75,WNW,288,0.0,3.0,98,0.00,,,0.09,weatherlink.com 1.10,2013-10-06 11:21:00,
2013-10-06 07:36:00,64.7,64.0,29.75,South,169,0.0,2.0,98,0.00,,,0.09,weatherlink.com 1.10,2013-10-06 11:36:00,
2013-10-06 07:51:00,64.5,64.0,29.74,SE,132,0.0,3.0,98,0.00,,,0.09,weatherlink.com 1.10,2013-10-06 11:51:00,
2013-10-06 08:06:00,64.5,64.0,29.74,SSW,193,0.0,5.0,98,0.00,,,0.09,weatherlink.com 1.10,2013-10-06 12:06:00,
2013-10-06 08:21:00,64.6,64.0,29.73,SSE,161,1.0,4.0,98,0.00,,,0.09,weatherlink.com 1.10,2013-10-06 12:21:00,
2013-10-06 08:36:00,64.6,64.0,29.73,SSW,196,0.0,4.0,98,0.00,,,0.09,weatherlink.com 1.10,2013-10-06 12:36:00,
2013-10-06 08:51:00,64.6,64.0,29.72,South,172,0.0,5.0,98,0.00,,,0.09,weatherlink.com 1.10,2013-10-06 12:51:00,
2013-10-06 09:06:00,64.6,64.0,29.72,South,170,0.0,5.0,98,0.00,,,0.09,weatherlink.com 1.10,2013-10-06 13:06:00,
2013-10-06 09:21:00,64.5,64.0,29.72,WSW,238,0.0,4.0,98,0.00,,,0.09,weatherlink.com 1.10,2013-10-06 13:21:00,
2013-10-06 09:36:00,64.4,64.0,29.72,SW,236,0.0,3.0,98,0.00,,,0.09,weatherlink.com 1.10,2013-10-06 13:36:00,
2013-10-06 09:51:00,64.3,64.0,29.72,SSE,168,2.0,8.0,98,0.00,,,0.09,weatherlink.com 1.10,2013-10-06 13:51:00,
2013-10-06 10:06:00,64.3,64.0,29.72,South,172,0.0,7.0,98,0.00,,,0.09,weatherlink.com 1.10,2013-10-06 14:06:00,
2013-10-06 10:21:00,64.3,64.0,29.72,SE,141,0.0,10.0,98,0.00,,,0.09,weatherlink.com 1.10,2013-10-06 14:21:00,
2013-10-06 10:36:00,64.4,64.0,29.72,NW,321,3.0,8.0,98,0.00,,,0.09,weatherlink.com 1.10,2013-10-06 14:36:00,
2013-10-06 10:51:00,64.6,64.0,29.72,NNW,338,0.0,4.0,98,0.01,,,0.10,weatherlink.com 1.10,2013-10-06 14:51:00,
2013-10-06 11:06:00,61.6,59.0,29.73,West,280,1.0,11.0,92,0.02,,,0.11,weatherlink.com 1.10,2013-10-06 15:06:00,
2013-10-06 11:21:00,59.5,58.0,29.72,NNW,333,1.0,6.0,95,0.05,,,0.14,weatherlink.com 1.10,2013-10-06 15:21:00,
2013-10-06 11:36:00,58.9,58.0,29.72,WNW,284,2.0,7.0,96,0.06,,,0.15,weatherlink.com 1.10,2013-10-06 15:36:00,
2013-10-06 11:51:00,58.6,58.0,29.72,WNW,297,2.0,9.0,96,0.06,,,0.16,weatherlink.com 1.10,2013-10-06 15:51:00,
2013-10-06 12:06:00,58.0,57.0,29.73,West,279,4.0,7.0,96,0.05,,,0.17,weatherlink.com 1.10,2013-10-06 16:06:00,
2013-10-06 12:21:00,57.3,56.0,29.73,WNW,282,5.0,12.0,96,0.03,,,0.18,weatherlink.com 1.10,2013-10-06 16:21:00,
2013-10-06 12:36:00,56.9,56.0,29.73,West,273,6.0,11.0,97,0.04,,,0.19,weatherlink.com 1.10,2013-10-06 16:36:00,
2013-10-06 12:51:00,56.8,56.0,29.72,West,268,4.0,8.0,97,0.03,,,0.19,weatherlink.com 1.10,2013-10-06 16:51:00,
2013-10-06 13:06:00,56.9,56.0,29.73,West,269,3.0,9.0,97,0.03,,,0.20,weatherlink.com 1.10,2013-10-06 17:06:00,
2013-10-06 13:21:00,56.6,56.0,29.72,North,349,3.0,7.0,96,0.03,,,0.21,weatherlink.com 1.10,2013-10-06 17:21:00,
2013-10-06 13:36:00,56.2,55.0,29.72,WNW,298,1.0,9.0,96,0.02,,,0.21,weatherlink.com 1.10,2013-10-06 17:36:00,
2013-10-06 13:51:00,55.8,55.0,29.70,WNW,294,3.0,7.0,97,0.03,,,0.22,weatherlink.com 1.10,2013-10-06 17:51:00,
2013-10-06 14:06:00,55.6,55.0,29.70,WNW,285,1.0,5.0,97,0.03,,,0.23,weatherlink.com 1.10,2013-10-06 18:06:00,
2013-10-06 14:22:00,55.4,55.0,29.70,NW,311,1.0,10.0,97,0.07,,,0.28,weatherlink.com 1.10,2013-10-06 18:22:00,
2013-10-06 14:37:00,55.2,54.0,29.69,WSW,249,0.0,7.0,97,0.15,,,0.36,weatherlink.com 1.10,2013-10-06 18:37:00,
2013-10-06 14:52:00,54.9,54.0,29.69,West,277,1.0,4.0,97,0.17,,,0.39,weatherlink.com 1.10,2013-10-06 18:52:00,
2013-10-06 15:07:00,54.9,54.0,29.70,WSW,237,1.0,7.0,97,0.19,,,0.42,weatherlink.com 1.10,2013-10-06 19:07:00,
2013-10-06 15:22:00,55.6,55.0,29.69,WNW,298,0.0,4.0,98,0.15,,,0.43,weatherlink.com 1.10,2013-10-06 19:22:00,
2013-10-06 15:37:00,56.8,56.0,29.69,WSW,246,9.0,11.0,98,0.07,,,0.43,weatherlink.com 1.10,2013-10-06 19:37:00,
2013-10-06 15:52:00,56.6,55.0,29.69,WNW,282,1.0,5.0,95,0.04,,,0.43,weatherlink.com 1.10,2013-10-06 19:52:00,
2013-10-06 16:07:00,57.1,56.0,29.70,NW,307,1.0,7.0,95,0.01,,,0.43,weatherlink.com 1.10,2013-10-06 20:07:00,
2013-10-06 16:22:00,56.3,54.0,29.70,NW,308,1.0,8.0,91,0.00,,,0.43,weatherlink.com 1.10,2013-10-06 20:22:00,
2013-10-06 16:37:00,56.7,55.0,29.69,WNW,285,0.0,4.0,94,0.00,,,0.43,weatherlink.com 1.10,2013-10-06 20:37:00,
2013-10-06 16:52:00,57.0,55.0,29.69,West,265,4.0,6.0,91,0.00,,,0.43,weatherlink.com 1.10,2013-10-06 20:52:00,
2013-10-06 17:07:00,56.7,54.0,29.69,WNW,300,0.0,3.0,91,0.00,,,0.43,weatherlink.com 1.10,2013-10-06 21:07:00,
2013-10-06 17:22:00,56.6,54.0,29.69,SW,218,1.0,3.0,91,0.00,,,0.43,weatherlink.com 1.10,2013-10-06 21:22:00,
2013-10-06 17:37:00,56.6,55.0,29.69,NW,320,1.0,1.0,94,0.00,,,0.43,weatherlink.com 1.10,2013-10-06 21:37:00,
2013-10-06 17:52:00,56.4,55.0,29.70,NNW,327,0.0,1.0,93,0.00,,,0.43,weatherlink.com 1.10,2013-10-06 21:52:00,
2013-10-06 18:07:00,56.4,55.0,29.70,SSE,162,0.0,1.0,94,0.00,,,0.43,weatherlink.com 1.10,2013-10-06 22:07:00,
2013-10-06 18:22:00,56.2,54.0,29.70,SSE,162,0.0,0.0,92,0.00,,,0.43,weatherlink.com 1.10,2013-10-06 22:22:00,
2013-10-06 18:37:00,56.0,54.0,29.70,SE,134,0.0,0.0,94,0.00,,,0.43,weatherlink.com 1.10,2013-10-06 22:37:00,
2013-10-06 18:52:00,55.9,54.0,29.71,SE,133,0.0,0.0,94,0.00,,,0.43,weatherlink.com 1.10,2013-10-06 22:52:00,
2013-10-06 19:07:00,55.6,54.0,29.70,SE,134,0.0,0.0,94,0.00,,,0.43,weatherlink.com 1.10,2013-10-06 23:07:00,
2013-10-06 19:22:00,55.2,54.0,29.71,SE,133,0.0,0.0,94,0.00,,,0.43,weatherlink.com 1.10,2013-10-06 23:22:00,
2013-10-06 19:37:00,54.7,53.0,29.71,SE,134,0.0,0.0,95,0.00,,,0.43,weatherlink.com 1.10,2013-10-06 23:37:00,
2013-10-06 19:52:00,54.7,54.0,29.71,SW,223,0.0,1.0,96,0.00,,,0.43,weatherlink.com 1.10,2013-10-06 23:52:00,
2013-10-06 20:07:00,54.7,54.0,29.71,ESE,117,1.0,2.0,96,0.00,,,0.43,weatherlink.com 1.10,2013-10-07 00:07:00,
2013-10-06 20:22:00,54.8,54.0,29.71,West,274,0.0,4.0,96,0.00,,,0.43,weatherlink.com 1.10,2013-10-07 00:22:00,
2013-10-06 20:37:00,55.2,54.0,29.72,SSE,160,0.0,4.0,97,0.00,,,0.43,weatherlink.com 1.10,2013-10-07 00:37:00,
2013-10-06 20:52:00,55.3,55.0,29.72,SSE,166,0.0,1.0,97,0.00,,,0.43,weatherlink.com 1.10,2013-10-07 00:52:00,
2013-10-06 21:07:00,55.5,54.0,29.74,SW,234,0.0,6.0,96,0.00,,,0.43,weatherlink.com 1.10,2013-10-07 01:07:00,
2013-10-06 21:22:00,54.6,50.0,29.74,NW,314,5.0,16.0,85,0.00,,,0.43,weatherlink.com 1.10,2013-10-07 01:22:00,
2013-10-06 21:37:00,53.6,49.0,29.74,West,278,15.0,21.0,83,0.00,,,0.43,weatherlink.com 1.10,2013-10-07 01:37:00,
2013-10-06 21:52:00,52.8,48.0,29.75,NNW,333,3.0,17.0,84,0.00,,,0.43,weatherlink.com 1.10,2013-10-07 01:52:00,
2013-10-06 22:07:00,52.1,47.0,29.76,WNW,290,5.0,17.0,82,0.00,,,0.43,weatherlink.com 1.10,2013-10-07 02:07:00,
2013-10-06 22:22:00,51.8,48.0,29.76,West,280,0.0,8.0,88,0.00,,,0.43,weatherlink.com 1.10,2013-10-07 02:22:00,
2013-10-06 22:37:00,51.2,47.0,29.76,West,269,1.0,13.0,85,0.00,,,0.43,weatherlink.com 1.10,2013-10-07 02:37:00,
2013-10-06 22:52:00,50.6,46.0,29.77,WNW,286,7.0,16.0,84,0.00,,,0.43,weatherlink.com 1.10,2013-10-07 02:52:00,
2013-10-06 23:07:00,50.3,45.0,29.77,WNW,290,1.0,12.0,83,0.00,,,0.43,weatherlink.com 1.10,2013-10-07 03:07:00,
2013-10-06 23:22:00,50.1,44.0,29.77,West,281,6.0,15.0,80,0.00,,,0.43,weatherlink.com 1.10,2013-10-07 03:22:00,
2013-10-06 23:37:00,49.9,44.0,29.77,NW,306,1.0,8.0,81,0.00,,,0.43,weatherlink.com 1.10,2013-10-07 03:37:00,
2013-10-06 23:52:00,49.3,44.0,29.77,NW,311,0.0,7.0,82,0.00,,,0.43,weatherlink.com 1.10,2013-10-07 03:52:00,